Wind_Speed
34 32 29 25 26 26 24 27 27 23 19 17 16 16 16 14 14 16 14 11 14 16 16 17 19 24 26 23 21 24 28 28 26 25 24 22 24 26 26 26 24 24 24 24 25 26 26 25 27 28 27 26 30 32 32 31 28 27 28 28 28 26 25
28 29 29 26 23 23 20 24 25 24 20 19 17 19 22 20 15 16 16 12 14 15 15 18 21 23 24 25 23 22 27 29 25 26 26 21 22 24 26 26 23 22 24 24 24 25 26 25 26 27 26 25 28 30 30 28 26 26 27 28 28 27 27
21 23 27 30 26 26 24 19 18 19 20 20 22 25 27 22 14 14 15 14 15 14 16 21 22 20 18 19 21 18 20 27 24 23 25 21 19 20 24 26 23 22 24 21 22 26 25 22 24 27 26 24 26 28 28 25 24 26 27 29 29 28 29
19 21 25 31 31 29 28 23 17 20 23 20 22 23 22 18 13 12 11 11 14 14 16 20 22 22 18 17 22 21 16 21 24 23 23 23 22 20 22 26 23 22 23 22 23 27 23 19 23 28 26 24 27 28 26 25 24 25 28 30 30 30 30
22 24 27 26 28 27 28 31 27 24 25 20 18 21 20 18 16 14 11 11 17 20 19 22 24 26 25 24 28 30 23 20 23 26 24 23 25 22 21 24 24 24 25 23 22 24 22 21 23 26 24 24 27 26 25 25 24 25 29 30 31 32 32
24 28 28 24 27 26 26 33 31 24 22 20 19 20 19 19 17 15 13 11 19 24 21 24 27 25 25 26 28 31 28 21 20 24 23 20 22 22 22 23 24 25 27 23 21 21 22 22 24 26 25 24 26 26 25 26 25 26 29 30 31 32 33
19 25 28 23 26 30 28 33 29 23 22 22 21 18 18 19 16 13 14 13 19 25 22 24 29 27 24 28 31 31 30 25 17 17 19 19 19 20 21 22 23 26 27 25 24 23 21 23 25 26 26 27 30 28 24 25 26 27 29 30 31 32 33
16 22 25 20 22 29 31 33 30 25 23 22 22 21 21 21 15 15 19 17 18 26 26 26 28 27 25 27 29 29 30 27 18 14 18 19 19 20 19 20 23 26 27 27 26 24 22 24 27 27 28 30 32 27 23 24 26 28 30 30 31 33 34
22 25 25 21 23 26 28 31 31 27 24 20 19 22 24 23 19 19 21 17 19 29 32 29 28 25 23 21 18 18 20 20 17 16 18 18 20 21 20 21 25 27 28 29 28 28 26 26 27 29 31 32 31 27 25 27 30 30 31 32 33 34 34
27 27 27 24 25 25 22 28 32 29 25 24 22 21 25 26 22 22 21 18 23 33 33 30 29 28 27 24 20 17 18 19 16 15 18 19 19 21 22 24 26 28 31 30 29 29 29 28 28 30 32 31 29 26 24 29 33 32 31 31 33 35 35
29 25 23 22 23 25 25 26 32 33 29 27 28 27 29 29 27 27 26 23 26 32 31 30 31 31 31 30 27 25 24 23 21 17 19 20 20 22 26 28 28 31 33 31 28 29 31 31 31 32 32 30 29 26 24 28 32 33 31 30 32 36 37
32 28 24 22 22 25 27 24 26 31 32 30 30 29 29 29 30 31 29 25 27 29 29 29 30 29 28 28 27 26 23 23 25 25 24 25 25 26 28 30 31 31 33 31 29 29 31 33 33 32 31 30 29 27 25 28 32 33 33 32 33 36 37
31 31 32 28 21 22 26 25 24 27 29 30 32 31 31 31 32 33 30 28 29 30 28 27 26 24 22 21 22 24 22 21 24 27 27 28 29 28 29 32 32 33 34 33 31 31 32 33 32 31 31 31 30 27 26 30 32 33 33 34 35 36 38
27 25 30 32 26 24 27 26 24 24 26 28 29 29 30 31 32 33 33 33 34 35 32 31 31 29 29 30 29 29 29 26 25 27 28 29 30 31 33 35 35 37 38 35 33 33 33 33 32 31 33 33 31 29 29 31 32 33 33 34 36 38 39
26 25 29 34 33 28 26 26 24 25 27 29 29 27 27 29 31 32 32 33 36 37 35 35 36 35 36 38 37 33 31 30 29 30 30 31 31 33 36 38 38 40 40 36 35 35 34 33 33 33 34 35 34 33 32 31 32 34 34 35 37 39 39
30 28 26 27 26 25 26 26 26 28 29 28 27 28 28 29 32 34 35 34 33 34 35 34 34 35 37 38 36 32 31 32 32 32 30 31 33 34 37 39 40 41 41 39 37 36 35 34 34 35 37 36 37 37 34 32 34 35 34 35 38 38 39
33 31 23 21 26 31 31 29 30 30 28 26 25 26 29 31 32 34 38 38 35 36 37 35 33 35 37 37 36 34 33 35 35 34 34 35 36 35 36 37 39 40 39 39 38 36 35 34 34 36 38 38 38 37 34 34 36 35 33 35 38 39 43
40 37 31 31 37 38 32 32 35 31 25 25 27 27 30 34 34 34 39 42 42 43 44 41 40 40 38 37 36 35 36 38 39 40 40 39 37 35 35 35 36 36 37 38 37 35 34 35 35 36 38 38 37 35 33 36 39 35 33 35 38 42 46
44 42 40 42 45 42 34 31 32 28 25 27 29 30 33 36 39 41 43 45 45 44 44 45 44 41 40 40 38 37 38 40 42 43 43 42 37 34 35 35 34 33 34 34 34 33 33 33 35 37 37 35 35 35 36 39 39 34 32 35 38 42 45
40 39 40 41 42 42 38 31 28 30 32 34 36 37 34 32 36 42 47 50 49 45 43 44 43 42 43 43 39 37 39 43 44 41 39 38 36 33 34 33 31 31 30 29 30 31 31 32 35 37 35 34 35 36 37 38 36 33 33 36 39 41 43
35 33 33 35 37 40 39 35 33 34 35 35 39 44 41 34 32 36 42 46 47 43 41 40 40 43 45 43 40 40 42 45 44 39 38 39 38 35 33 30 28 28 27 26 27 29 31 33 34 34 34 34 35 36 35 35 34 33 35 38 40 40 41
34 34 33 32 35 39 40 36 35 37 37 34 34 38 40 39 36 37 41 44 44 44 43 41 42 46 45 43 44 44 43 43 43 43 43 42 39 37 35 32 31 29 26 25 26 29 33 33 33 33 34 34 35 35 33 33 32 34 36 38 37 38 40
35 35 34 32 35 41 40 33 30 35 37 34 33 34 37 38 38 38 40 41 41 43 43 42 44 45 44 43 45 45 44 44 45 44 42 40 39 37 36 35 35 33 29 28 29 31 33 33 33 34 34 33 33 33 32 32 34 36 36 35 36 38 41
39 37 36 35 36 38 35 30 29 32 34 34 35 38 38 38 39 39 37 35 37 40 42 41 41 41 42 43 43 42 42 42 44 43 39 38 39 37 34 35 35 32 30 30 30 31 32 34 36 36 35 32 31 31 33 34 35 35 35 36 37 39 41
45 43 42 41 40 38 35 32 30 28 29 31 33 36 38 38 38 38 35 34 36 38 38 36 35 38 41 41 39 39 40 40 44 44 39 36 37 36 34 34 34 35 35 34 31 31 33 35 37 38 36 34 32 32 35 35 34 34 36 38 39 41 41
47 44 44 44 45 44 41 39 36 32 30 32 35 38 40 39 37 37 37 36 36 36 36 37 37 38 41 41 40 42 44 42 44 45 41 37 37 37 36 35 36 39 40 35 30 30 31 33 34 35 35 35 34 33 33 32 33 35 37 39 41 42 41
46 44 44 42 42 46 46 44 43 41 39 39 40 41 41 41 40 41 41 40 38 37 38 41 40 40 42 43 41 42 44 42 41 45 44 38 37 40 39 38 39 40 39 36 33 31 32 33 33 34 34 34 34 32 31 31 33 34 38 41 40 39 41
41 42 44 43 42 47 50 48 45 43 44 44 44 42 41 42 44 44 43 41 40 40 41 43 42 41 43 42 39 40 42 40 39 43 44 39 38 42 42 41 43 43 41 41 40 38 39 38 35 34 35 33 32 33 32 33 34 36 38 39 37 38 43
42 42 44 44 42 44 48 48 46 46 47 48 48 46 43 43 43 42 40 41 43 44 45 45 44 43 43 42 40 39 41 40 39 42 44 41 40 43 43 43 45 44 42 41 40 42 43 40 35 35 36 35 35 36 36 35 37 38 36 36 39 44 45
45 44 45 46 46 46 46 46 46 47 48 47 46 45 42 42 43 43 44 46 47 46 47 46 45 45 45 44 42 40 41 43 42 41 42 41 40 43 45 43 42 44 43 39 39 42 44 41 37 37 38 37 38 39 38 39 41 42 39 39 44 47 46
43 43 44 45 45 45 45 44 43 42 42 41 40 41 41 42 45 47 49 50 49 47 46 45 43 43 44 43 42 41 41 43 43 42 44 45 44 45 45 43 43 44 41 35 36 43 44 41 38 38 37 37 39 39 40 42 43 43 42 43 47 49 49
42 41 41 41 41 41 41 42 43 43 43 43 43 43 42 42 43 45 46 47 47 46 46 44 43 43 45 44 43 42 43 45 46 45 46 46 45 43 44 44 44 40 36 34 39 45 43 41 39 36 35 37 40 40 42 44 44 44 45 47 50 52 53
39 40 42 43 45 45 44 45 46 46 46 45 45 45 45 44 43 44 44 45 46 45 45 46 45 45 46 46 45 44 45 47 47 46 46 46 45 44 45 45 43 39 39 41 44 43 43 44 42 38 37 41 43 43 43 45 48 49 49 49 50 51 52
34 34 37 41 44 47 46 44 43 43 43 42 42 43 44 44 44 45 45 45 45 45 45 46 46 46 46 46 46 46 45 45 45 45 47 47 46 46 46 43 40 40 43 45 45 43 45 47 48 47 47 48 47 46 47 49 50 50 49 50 52 54 57
36 34 35 37 39 42 43 41 39 39 40 41 42 43 43 45 46 46 45 45 44 44 45 45 45 46 47 47 47 46 46 45 45 46 48 48 47 47 45 41 38 40 43 45 45 44 45 48 51 53 52 49 47 49 50 50 49 49 51 54 56 58 60
43 42 41 41 41 41 42 42 42 43 43 44 44 45 45 45 45 45 44 45 45 45 46 46 46 46 47 47 48 46 45 46 48 47 47 48 46 44 42 40 40 41 43 45 45 45 46 49 50 51 50 49 50 51 51 51 52 54 55 57 58 59 60
45 43 42 43 42 41 42 42 44 47 48 47 46 46 45 44 44 44 45 46 46 46 47 47 46 46 46 47 48 47 45 47 49 47 46 46 43 38 38 41 44 44 44 45 46 45 46 48 48 49 51 51 51 52 53 55 57 57 58 58 58 58 58
Wind_Direction
214 215 179 181 216 213 225 228 196 188 214 228 246 250 239 247 256 250 244 243 257 268 272 272 266 259 262 268 273 280 278 273 277 279 272 272 275 275 279 279 276 276 279 282 283 282 284 285 284 288 290 285 283 285 287 287 288 290 292 293 294 296 298
219 223 193 189 213 201 211 237 209 189 200 207 226 247 242 242 251 250 246 246 254 271 281 268 263 265 271 279 278 271 269 268 267 271 272 271 272 274 277 278 276 276 280 286 288 286 286 289 290 291 290 285 286 289 289 289 291 294 295 295 296 297 299
237 235 204 193 208 199 193 220 221 201 202 212 221 230 231 230 239 244 237 239 246 250 259 259 260 270 279 283 280 274 273 270 262 264 271 268 266 271 274 275 276 278 282 287 285 280 285 293 295 297 293 289 293 295 292 292 296 299 299 298 298 299 300
240 241 218 198 205 209 195 192 210 209 201 215 235 236 230 221 227 247 240 243 250 239 242 255 256 255 254 258 273 281 280 275 271 265 262 263 266 269 272 276 279 279 285 293 284 279 292 303 300 304 302 293 294 293 291 296 299 300 301 300 300 301 301
223 225 230 213 207 219 211 196 201 206 194 198 231 243 243 230 219 231 237 240 251 243 238 250 256 257 259 264 272 274 270 273 278 271 262 262 268 273 274 277 283 283 283 290 285 283 302 307 297 303 305 295 292 288 289 298 301 301 301 300 302 303 302
219 215 230 226 208 213 221 212 206 200 191 195 218 230 237 237 222 219 230 243 259 259 251 254 264 272 276 276 273 271 273 273 267 267 271 267 266 274 277 276 284 286 282 287 288 290 304 305 295 298 302 300 295 290 292 299 301 301 300 300 302 302 300
221 215 229 234 212 204 213 220 212 198 199 205 213 223 233 238 232 225 236 243 257 265 262 260 267 271 272 273 270 271 279 281 267 260 270 274 269 271 274 277 283 286 286 291 293 292 299 303 298 296 298 299 295 291 295 301 302 302 300 301 303 302 303
221 216 230 243 225 205 204 218 221 216 218 213 210 222 234 240 237 233 241 243 252 263 264 261 265 268 269 270 271 269 270 273 278 273 270 276 278 273 273 278 280 282 286 291 294 296 299 302 301 298 296 295 293 293 299 304 305 304 302 303 305 306 308
215 210 217 229 229 214 201 211 226 238 241 231 222 225 231 236 232 229 238 239 243 254 257 258 263 270 271 269 273 275 267 269 284 287 281 281 278 274 275 279 281 282 285 288 293 298 300 300 299 297 295 295 297 300 303 303 304 304 306 308 307 306 308
211 210 210 213 225 235 224 209 215 231 241 241 241 237 233 237 234 228 229 227 236 249 255 261 265 269 271 267 261 263 269 279 285 279 280 283 279 276 277 280 283 285 287 290 293 295 295 295 294 293 294 297 302 304 300 298 300 302 306 310 307 305 304
204 210 221 215 213 231 238 221 209 212 220 229 237 238 236 243 249 248 246 244 250 256 258 263 265 266 270 269 259 252 260 276 282 277 276 277 276 279 282 283 285 285 286 289 294 294 291 291 292 292 295 299 303 304 299 297 298 300 304 305 301 299 298
206 204 220 220 205 212 225 229 222 216 214 213 221 232 237 240 247 254 261 265 267 265 262 263 265 265 271 276 266 254 252 263 276 279 277 274 274 276 281 283 284 282 284 289 293 291 288 290 293 294 298 301 302 304 301 296 296 300 301 297 293 294 296
218 204 206 207 208 221 226 227 230 230 226 216 212 222 232 238 244 247 249 253 258 261 262 262 262 261 264 267 264 262 260 261 270 274 274 276 279 279 282 286 286 286 288 291 291 287 287 291 294 297 299 298 301 303 298 294 296 298 296 293 292 294 297
227 222 213 207 210 227 230 228 230 234 238 237 230 227 228 234 242 246 248 252 253 254 255 256 258 256 252 250 256 269 275 272 271 273 274 277 282 285 288 291 292 293 293 291 289 289 290 292 295 298 297 296 300 300 295 295 296 294 292 292 294 297 298
224 230 226 218 214 219 224 229 235 234 236 241 244 243 238 236 240 245 250 257 261 260 258 254 254 257 258 258 260 267 272 273 275 278 279 281 286 291 293 292 292 293 292 291 291 291 291 293 296 297 296 296 298 296 295 296 293 290 291 292 294 298 298
222 221 228 229 226 230 231 231 236 239 236 236 238 242 243 240 241 243 243 245 254 261 260 253 251 255 258 261 262 262 263 267 273 278 281 284 288 291 292 291 291 291 290 290 290 290 291 294 296 296 296 295 294 294 295 293 287 287 289 290 293 296 294
229 223 226 234 236 239 239 233 233 235 236 238 240 243 246 246 246 247 247 243 242 247 250 252 254 256 257 261 267 270 267 267 273 279 283 285 288 289 288 287 287 286 287 287 288 289 291 292 293 293 292 290 290 292 292 286 282 283 286 291 295 295 290
232 229 221 221 224 228 231 228 223 222 229 241 244 245 247 248 244 242 245 246 242 241 245 251 255 259 261 265 271 274 274 275 279 283 284 286 288 288 287 285 282 281 282 284 286 288 289 289 289 287 286 288 291 292 288 282 279 280 286 293 294 292 291
231 229 222 220 219 219 224 225 219 218 227 234 235 238 242 244 241 238 240 245 247 248 252 256 259 264 267 269 273 277 278 278 280 283 286 287 287 288 288 284 280 277 278 280 283 285 285 285 285 284 285 289 292 289 284 280 278 280 289 295 293 291 292
230 231 230 229 226 225 227 227 220 220 222 218 215 219 226 235 242 243 243 246 249 251 254 258 263 267 269 273 278 280 279 278 279 283 290 292 291 293 291 284 278 276 276 277 280 282 282 282 281 282 287 290 289 287 284 281 278 282 291 295 292 292 294
225 232 236 233 231 231 229 225 221 221 222 219 216 215 216 221 233 240 243 248 253 253 255 260 264 267 272 278 281 278 278 281 283 285 291 294 296 296 292 286 284 280 276 276 279 280 280 279 279 283 288 288 287 286 283 278 278 281 287 290 291 292 294
224 229 234 233 234 235 231 226 226 229 229 227 226 228 229 234 239 241 243 251 259 262 263 265 266 268 274 279 278 277 280 284 286 287 288 291 293 292 288 287 288 285 279 277 277 276 275 278 281 285 285 284 286 287 284 280 277 277 282 287 289 291 293
233 232 232 233 237 239 236 232 234 239 239 233 233 240 244 247 250 250 250 254 260 263 264 266 268 272 276 277 278 281 284 285 285 285 286 288 290 289 287 286 289 289 282 276 276 277 281 284 285 282 279 283 289 289 286 281 274 274 282 287 287 291 294
238 236 234 234 238 241 240 238 239 247 250 246 243 246 250 253 255 255 255 255 257 261 265 267 271 275 277 278 281 284 285 287 287 285 286 288 286 286 286 286 289 290 284 279 278 280 283 286 285 282 283 288 290 285 280 275 272 277 287 287 287 292 294
242 243 245 244 244 244 243 238 237 245 256 257 252 248 249 253 254 253 253 252 254 260 265 268 272 276 277 279 282 282 281 286 288 287 288 288 286 287 289 288 291 293 288 282 280 278 279 282 284 285 287 289 285 277 272 274 278 286 289 287 289 293 292
247 248 249 247 245 246 246 242 239 240 247 253 252 250 252 254 252 252 253 253 253 257 261 265 269 274 277 280 283 283 282 285 286 285 285 287 287 290 290 289 293 296 291 285 281 279 279 279 280 280 281 282 278 272 272 280 288 289 287 288 290 290 290
244 243 245 244 242 243 243 240 240 241 241 244 248 251 254 255 252 252 255 256 254 256 262 266 270 274 277 280 283 283 282 283 285 283 285 288 290 290 288 288 292 294 290 287 287 285 282 278 274 272 275 279 277 273 277 287 289 286 287 290 289 287 291
240 237 238 238 238 242 243 241 240 241 240 242 246 249 252 254 255 256 258 259 259 261 266 271 274 276 277 278 281 281 280 282 284 284 287 290 290 289 290 292 293 292 289 285 284 284 282 277 270 269 275 279 275 275 281 284 285 287 289 289 288 291 295
241 238 236 236 237 242 245 243 240 240 242 244 247 249 253 258 261 262 262 262 263 267 271 275 276 276 276 278 280 279 281 283 284 285 287 289 289 290 293 294 292 292 290 284 280 281 280 275 272 275 277 275 274 278 281 279 283 290 290 285 290 295 296
243 241 240 241 242 242 243 242 242 243 247 250 251 252 255 258 261 262 263 264 267 270 273 275 277 278 278 279 279 278 281 283 284 285 285 285 286 289 290 289 288 289 286 279 278 280 278 274 276 279 278 277 279 281 279 277 281 287 285 283 290 294 292
242 244 244 244 242 241 242 245 247 248 249 250 252 256 258 259 260 261 263 265 268 270 271 272 274 275 275 275 277 280 282 281 281 282 282 281 283 284 285 287 289 285 275 268 278 284 277 272 276 279 278 280 282 281 281 282 284 286 285 285 290 293 293
245 247 247 245 242 241 244 249 253 254 253 253 255 257 258 259 260 262 263 265 267 270 272 273 275 276 277 278 281 282 282 281 281 282 281 281 283 286 288 290 291 283 267 269 287 289 275 268 273 276 276 280 282 284 287 287 285 285 288 290 293 294 294
248 247 246 246 248 250 251 253 255 256 256 257 259 259 259 261 264 265 265 265 266 269 273 275 276 277 279 280 281 279 278 280 282 282 283 284 286 289 289 288 286 278 268 274 287 284 270 267 271 274 280 286 287 287 289 287 284 286 289 292 293 292 291
237 239 242 245 249 251 253 254 255 256 257 260 261 261 261 262 264 264 264 265 267 270 272 274 276 277 277 279 280 279 279 280 280 280 282 284 287 290 288 284 281 273 268 274 282 279 271 268 270 275 283 287 287 286 287 286 286 287 290 291 292 291 291
232 236 244 251 253 253 253 255 257 257 257 259 261 261 262 263 263 265 267 268 269 270 271 271 273 275 277 279 279 279 280 280 280 281 281 283 286 287 283 280 279 274 270 275 280 278 274 273 274 277 282 284 284 285 285 284 286 287 288 290 291 291 292
242 243 248 255 260 261 261 260 262 262 259 257 258 260 261 262 264 266 269 270 270 269 270 270 271 273 275 276 276 277 278 279 280 280 280 281 283 281 276 277 281 280 277 278 279 277 277 277 278 279 281 282 282 283 282 282 284 285 287 289 290 291 292
252 251 252 255 259 262 263 262 262 263 261 259 260 262 264 265 265 265 265 267 268 268 268 270 270 271 273 274 275 277 278 279 279 279 278 278 278 274 272 277 281 280 278 277 276 276 277 278 278 279 280 280 281 282 282 283 283 285 287 289 290 291 292
Height
5896 5897 5902 5905 5905 5907 5908 5907 5908 5912 5916 5918 5917 5917 5917 5916 5917 5917 5916 5916 5915 5913 5913 5911 5910 5909 5908 5908 5908 5905 5904 5906 5907 5905 5906 5907 5906 5905 5903 5904 5905 5905 5905 5907 5907 5907 5907 5907 5908 5906 5905 5907 5907 5906 5906 5905 5903 5902 5900 5899 5899 5899 5899
5895 5896 5900 5901 5901 5905 5907 5905 5906 5909 5912 5915 5916 5916 5914 5914 5915 5915 5915 5916 5915 5913 5912 5909 5906 5906 5905 5904 5905 5905 5902 5903 5905 5903 5902 5905 5905 5903 5902 5902 5903 5902 5901 5903 5904 5904 5903 5903 5903 5902 5902 5904 5904 5903 5903 5902 5899 5898 5896 5895 5895 5895 5895
5895 5894 5896 5898 5898 5901 5903 5904 5906 5907 5908 5911 5911 5910 5910 5912 5913 5913 5913 5914 5913 5912 5910 5907 5905 5905 5905 5902 5900 5902 5901 5900 5902 5901 5900 5902 5903 5902 5901 5900 5902 5900 5899 5901 5903 5901 5901 5900 5899 5898 5900 5901 5901 5900 5900 5898 5896 5893 5892 5892 5892 5892 5891
5892 5891 5892 5894 5895 5896 5899 5901 5904 5904 5905 5908 5909 5908 5908 5910 5911 5911 5911 5912 5911 5910 5908 5905 5903 5904 5905 5902 5899 5900 5902 5900 5899 5899 5899 5899 5899 5901 5900 5898 5898 5897 5896 5898 5900 5899 5898 5898 5896 5896 5897 5898 5898 5898 5897 5894 5892 5889 5888 5888 5888 5888 5888
5890 5889 5888 5892 5894 5896 5896 5897 5898 5899 5901 5905 5908 5907 5906 5907 5908 5908 5910 5910 5908 5906 5906 5903 5900 5901 5903 5903 5900 5899 5900 5901 5898 5896 5896 5897 5896 5897 5897 5895 5894 5893 5893 5894 5897 5897 5895 5894 5894 5895 5896 5895 5895 5895 5893 5890 5887 5885 5885 5885 5885 5885 5884
5888 5888 5887 5890 5893 5895 5896 5895 5894 5897 5900 5903 5906 5905 5905 5905 5905 5906 5907 5908 5905 5902 5903 5901 5898 5899 5900 5899 5897 5895 5896 5899 5897 5894 5894 5895 5895 5894 5893 5892 5891 5890 5890 5892 5895 5895 5893 5892 5893 5893 5892 5892 5892 5891 5889 5886 5883 5882 5882 5883 5883 5882 5880
5885 5888 5886 5887 5890 5893 5895 5894 5894 5896 5898 5901 5903 5904 5904 5903 5903 5904 5905 5906 5902 5898 5899 5899 5896 5897 5898 5894 5892 5892 5893 5894 5895 5894 5893 5893 5893 5893 5892 5890 5888 5887 5888 5890 5893 5893 5892 5891 5891 5890 5889 5889 5888 5888 5886 5882 5879 5879 5880 5881 5880 5878 5876
5884 5886 5885 5885 5885 5888 5890 5891 5892 5893 5895 5897 5900 5902 5903 5901 5902 5903 5903 5903 5901 5895 5895 5895 5893 5894 5896 5893 5891 5890 5891 5890 5890 5892 5892 5891 5891 5891 5891 5890 5888 5886 5887 5888 5889 5889 5889 5888 5887 5887 5887 5887 5886 5884 5881 5878 5876 5877 5877 5877 5876 5874 5873
5882 5883 5884 5884 5883 5883 5886 5889 5891 5891 5892 5893 5896 5898 5900 5898 5899 5901 5900 5901 5900 5893 5890 5891 5891 5891 5893 5892 5890 5888 5887 5887 5887 5888 5888 5889 5889 5888 5888 5888 5886 5885 5885 5885 5886 5886 5886 5885 5885 5884 5884 5884 5882 5878 5876 5874 5873 5874 5874 5873 5872 5871 5871
5878 5879 5880 5883 5883 5882 5883 5887 5889 5891 5892 5893 5893 5895 5895 5894 5896 5897 5897 5899 5896 5890 5888 5889 5889 5888 5889 5890 5890 5887 5885 5884 5885 5886 5886 5885 5886 5886 5885 5885 5884 5882 5881 5882 5884 5884 5884 5884 5884 5882 5881 5880 5877 5873 5872 5871 5871 5871 5872 5870 5868 5867 5867
5875 5878 5879 5880 5882 5882 5882 5883 5885 5888 5891 5893 5893 5893 5892 5892 5892 5892 5892 5894 5892 5888 5888 5889 5888 5887 5885 5886 5887 5886 5884 5882 5883 5884 5884 5883 5884 5884 5883 5882 5881 5880 5878 5879 5881 5881 5880 5881 5880 5879 5877 5876 5873 5871 5870 5869 5868 5868 5869 5868 5865 5864 5864
5870 5874 5877 5877 5879 5880 5881 5881 5883 5884 5885 5887 5889 5890 5891 5890 5889 5888 5889 5890 5889 5886 5885 5886 5885 5884 5882 5881 5881 5881 5882 5882 5881 5881 5881 5880 5880 5881 5881 5879 5879 5878 5875 5876 5878 5877 5876 5876 5875 5874 5873 5872 5870 5868 5867 5866 5865 5866 5866 5865 5863 5862 5861
5867 5868 5870 5872 5875 5878 5879 5879 5881 5882 5881 5882 5883 5885 5887 5888 5887 5886 5886 5885 5885 5884 5883 5883 5882 5881 5881 5879 5876 5876 5878 5879 5879 5878 5878 5877 5876 5876 5876 5875 5875 5874 5872 5872 5873 5873 5872 5871 5870 5869 5868 5867 5866 5866 5865 5864 5863 5864 5862 5860 5858 5858 5857
5865 5866 5867 5869 5871 5874 5875 5876 5878 5880 5881 5880 5880 5881 5883 5884 5884 5884 5883 5882 5882 5882 5881 5881 5878 5877 5878 5875 5873 5874 5875 5875 5876 5876 5876 5876 5875 5874 5872 5871 5870 5868 5867 5868 5869 5868 5867 5867 5866 5865 5864 5863 5863 5863 5862 5861 5861 5861 5859 5856 5855 5854 5852
5861 5863 5865 5865 5866 5868 5871 5873 5874 5877 5879 5879 5879 5878 5880 5881 5882 5882 5881 5879 5878 5877 5877 5877 5874 5872 5871 5870 5870 5872 5872 5872 5873 5874 5873 5873 5872 5871 5869 5868 5868 5866 5863 5863 5863 5862 5862 5862 5861 5861 5860 5859 5858 5858 5858 5858 5858 5856 5855 5854 5852 5850 5847
5855 5858 5860 5863 5865 5866 5867 5869 5872 5874 5875 5876 5877 5877 5877 5877 5878 5878 5877 5876 5875 5872 5870 5869 5868 5868 5867 5865 5866 5869 5870 5869 5870 5870 5870 5870 5869 5869 5867 5865 5864 5862 5860 5859 5858 5858 5858 5857 5856 5856 5855 5854 5853 5854 5854 5854 5852 5852 5851 5850 5848 5845 5843
5849 5853 5858 5862 5863 5863 5862 5865 5869 5871 5872 5874 5874 5875 5875 5874 5873 5872 5870 5871 5871 5867 5863 5862 5862 5863 5862 5861 5862 5864 5866 5866 5865 5865 5866 5866 5866 5866 5865 5863 5860 5858 5857 5855 5854 5855 5855 5853 5853 5852 5850 5849 5850 5850 5850 5849 5847 5847 5846 5844 5842 5841 5839
5843 5849 5853 5855 5855 5854 5855 5858 5861 5865 5869 5870 5871 5873 5872 5869 5867 5866 5863 5862 5862 5860 5858 5858 5858 5858 5859 5859 5860 5861 5862 5861 5860 5860 5860 5861 5861 5861 5860 5860 5858 5855 5854 5852 5851 5851 5851 5850 5849 5848 5847 5847 5847 5847 5847 5844 5841 5841 5840 5838 5838 5837 5836
5839 5842 5844 5844 5844 5846 5849 5852 5856 5860 5862 5862 5864 5867 5866 5862 5860 5858 5857 5855 5855 5855 5854 5853 5854 5855 5855 5856 5857 5859 5859 5856 5855 5856 5855 5855 5856 5857 5855 5855 5854 5852 5851 5850 5849 5848 5847 5847 5845 5843 5843 5844 5844 5843 5841 5837 5835 5835 5836 5835 5835 5834 5831
5834 5837 5838 5838 5839 5842 5845 5848 5850 5851 5851 5852 5853 5856 5856 5855 5853 5852 5851 5850 5850 5852 5850 5850 5851 5851 5850 5851 5854 5856 5854 5850 5849 5852 5852 5850 5851 5851 5850 5850 5849 5849 5848 5848 5847 5845 5844 5843 5841 5840 5840 5841 5840 5837 5835 5832 5831 5832 5832 5832 5831 5829 5826
5830 5832 5833 5834 5836 5838 5840 5842 5843 5842 5844 5845 5846 5846 5847 5847 5846 5847 5846 5844 5845 5847 5847 5848 5848 5846 5845 5848 5850 5850 5848 5845 5844 5847 5847 5846 5846 5846 5845 5845 5845 5845 5845 5844 5844 5842 5840 5839 5838 5837 5837 5836 5835 5834 5832 5831 5830 5829 5829 5828 5826 5824 5821
5824 5826 5828 5829 5831 5832 5833 5836 5837 5837 5839 5842 5842 5842 5842 5842 5843 5844 5842 5840 5841 5841 5842 5843 5843 5842 5844 5844 5843 5843 5844 5843 5841 5842 5842 5843 5842 5841 5841 5841 5841 5841 5841 5840 5839 5837 5836 5835 5835 5835 5834 5833 5831 5831 5830 5829 5828 5827 5826 5824 5821 5819 5818
5820 5822 5823 5825 5826 5826 5828 5832 5833 5833 5835 5837 5838 5837 5837 5837 5839 5839 5838 5838 5838 5836 5836 5837 5836 5838 5840 5839 5837 5837 5839 5838 5837 5837 5838 5839 5838 5837 5837 5837 5836 5836 5836 5835 5834 5832 5831 5832 5832 5831 5829 5828 5828 5827 5826 5826 5825 5824 5823 5819 5817 5815 5815
5816 5817 5818 5820 5822 5822 5824 5828 5829 5828 5829 5831 5833 5833 5831 5831 5833 5833 5833 5834 5833 5831 5832 5832 5832 5833 5834 5833 5833 5833 5833 5832 5831 5832 5834 5834 5833 5833 5834 5833 5832 5832 5831 5829 5828 5828 5827 5827 5826 5824 5822 5823 5823 5823 5822 5821 5820 5819 5817 5815 5813 5812 5811
5811 5813 5814 5817 5819 5819 5821 5824 5825 5825 5824 5824 5826 5827 5826 5826 5827 5828 5829 5830 5828 5827 5828 5828 5828 5828 5828 5829 5830 5829 5828 5829 5827 5826 5829 5830 5829 5829 5830 5828 5828 5826 5824 5823 5823 5823 5823 5822 5821 5819 5818 5818 5819 5818 5817 5816 5814 5812 5810 5809 5809 5808 5806
5807 5809 5810 5812 5814 5814 5817 5819 5819 5819 5819 5818 5819 5820 5821 5822 5823 5823 5824 5825 5823 5823 5824 5823 5823 5824 5823 5824 5825 5824 5824 5825 5824 5822 5824 5826 5825 5825 5825 5825 5824 5820 5816 5815 5816 5817 5818 5819 5817 5814 5814 5814 5813 5813 5812 5811 5809 5807 5805 5804 5803 5802 5800
5802 5803 5804 5806 5807 5807 5809 5811 5811 5812 5813 5813 5813 5814 5815 5816 5817 5817 5819 5819 5819 5819 5819 5818 5819 5821 5820 5820 5821 5820 5819 5821 5821 5818 5819 5822 5821 5819 5820 5820 5819 5817 5815 5813 5811 5811 5813 5814 5812 5809 5809 5809 5808 5808 5807 5805 5803 5802 5801 5799 5798 5796 5794
5794 5796 5797 5798 5799 5799 5801 5805 5807 5806 5806 5809 5810 5809 5810 5810 5810 5812 5814 5814 5814 5815 5815 5815 5816 5817 5816 5816 5818 5817 5815 5817 5818 5815 5814 5817 5816 5813 5814 5815 5813 5812 5813 5810 5808 5805 5804 5805 5805 5804 5803 5804 5803 5802 5802 5799 5797 5797 5796 5794 5793 5792 5790
5789 5791 5792 5793 5794 5794 5795 5798 5801 5800 5800 5803 5805 5805 5806 5806 5806 5809 5811 5810 5810 5811 5811 5811 5812 5812 5813 5813 5814 5814 5811 5811 5812 5811 5809 5810 5809 5807 5809 5809 5806 5806 5807 5805 5802 5799 5795 5796 5799 5799 5797 5797 5797 5797 5797 5795 5793 5792 5791 5790 5789 5787 5785
5785 5786 5787 5788 5789 5789 5788 5790 5794 5795 5797 5801 5802 5802 5802 5802 5803 5805 5805 5805 5807 5808 5807 5807 5807 5807 5808 5808 5808 5808 5807 5806 5806 5806 5805 5804 5803 5802 5803 5803 5801 5800 5800 5796 5793 5791 5789 5790 5793 5792 5791 5791 5792 5792 5792 5790 5789 5788 5787 5786 5784 5782 5780
5780 5781 5782 5783 5783 5782 5782 5786 5790 5792 5794 5797 5799 5798 5798 5798 5798 5799 5799 5800 5802 5802 5802 5803 5803 5802 5803 5803 5802 5803 5802 5800 5801 5802 5799 5798 5798 5797 5797 5798 5797 5795 5794 5791 5787 5786 5784 5785 5786 5787 5787 5786 5786 5786 5786 5785 5784 5784 5782 5780 5778 5776 5774
5775 5776 5776 5777 5776 5775 5778 5783 5786 5786 5788 5790 5792 5792 5792 5793 5794 5794 5795 5795 5796 5796 5796 5797 5797 5796 5796 5796 5797 5797 5795 5793 5794 5795 5793 5793 5794 5792 5792 5792 5792 5790 5789 5788 5786 5783 5781 5779 5780 5781 5783 5782 5780 5780 5781 5780 5779 5778 5777 5774 5771 5769 5767
5770 5769 5770 5771 5769 5769 5774 5779 5780 5781 5782 5784 5785 5786 5786 5788 5790 5790 5790 5790 5790 5791 5791 5791 5791 5791 5791 5790 5791 5791 5788 5787 5787 5787 5786 5787 5788 5787 5786 5786 5786 5785 5784 5783 5782 5780 5778 5777 5776 5775 5776 5777 5775 5774 5775 5774 5773 5771 5770 5768 5765 5763 5762
5764 5764 5765 5767 5765 5765 5770 5774 5776 5777 5778 5779 5780 5781 5781 5783 5784 5784 5784 5785 5786 5787 5787 5786 5786 5785 5785 5785 5785 5784 5783 5782 5781 5780 5779 5780 5782 5782 5780 5779 5779 5779 5778 5777 5776 5775 5774 5774 5773 5771 5771 5772 5771 5769 5768 5768 5766 5764 5762 5761 5759 5757 5755
5760 5761 5762 5763 5762 5763 5766 5770 5771 5772 5774 5774 5774 5775 5776 5777 5777 5778 5779 5781 5782 5782 5781 5781 5781 5780 5779 5779 5778 5777 5777 5775 5773 5773 5772 5773 5775 5775 5773 5772 5772 5772 5772 5771 5770 5769 5769 5769 5768 5766 5766 5767 5766 5764 5763 5761 5759 5758 5756 5754 5753 5751 5748
5756 5759 5761 5760 5760 5760 5763 5766 5766 5766 5767 5768 5768 5769 5771 5771 5772 5774 5775 5775 5776 5776 5775 5775 5776 5775 5775 5773 5772 5771 5771 5768 5767 5766 5766 5766 5768 5768 5766 5765 5765 5765 5765 5765 5764 5763 5762 5762 5761 5760 5761 5761 5759 5758 5757 5755 5753 5752 5750 5748 5747 5745 5742
5751 5756 5758 5758 5758 5758 5758 5761 5761 5758 5758 5762 5764 5765 5766 5767 5767 5768 5769 5768 5769 5769 5769 5769 5770 5770 5769 5768 5766 5765 5765 5763 5761 5760 5759 5759 5761 5761 5760 5758 5757 5758 5759 5758 5757 5757 5756 5756 5755 5754 5754 5755 5753 5751 5750 5749 5747 5746 5745 5743 5741 5739 5736